Weather History for Lamar, CO

Change the Weather History Date:

Thursday, August 16, 2012

  Actual Average Record
Temperature  
Mean Temperature 69 °F 76 °F  
Max Temperature 79 °F 91 °F 106 °F (1936)
Min Temperature 58 °F 61 °F 49 °F (1942)
Degree Days  
Heating Degree Days 0 0  
Month to date heating degree days 0 0  
Since 1 June heating degree days 0 22  
Since 1 July heating degree days 0 2  
Cooling Degree Days 4 11  
Month to date cooling degree days 230 188  
Year to date cooling degree days 1354 852  
Since 1 June cooling degree days 1262 792  
Growing Degree Days 18 (Base 50)    
Moisture  
Dew Point 47 °F    
Average Humidity 49    
Maximum Humidity 67    
Minimum Humidity 31    
Precipitation  
Precipitation 0.00 in 0.06 in 1.79 in (1938)
Month to date precipitation 0.85 1.44  
Year to date precipitation 4.17 11.53  
Snow  
Snow 0.00 in - - ()
Month to date snowfall 0.0  
Since 1 June snowfall 0.0  
Snow Depth 0.00 in    
Sea Level Pressure  
Sea Level Pressure 30.04 in    
Wind  
Wind Speed 11 mph (ENE)    
Max Wind Speed 22 mph    
Max Gust Speed 28 mph    
Visibility 10 miles    
Events      
T = Trace of Precipitation, MM = Missing Value Source: NWS Daily Summary

Daily Weather History Graph

Daily Weather History Graph

Search for Another Location

Airport:

Trip Planner

Search our weather history database for the weather conditions in past years. The results will help you decide how hot, cold, wet, or windy it might be!

Date:

Astronomy

Aug. 16, 2012 Rise Set
Actual Time 6:07 AM MDT 7:42 PM MDT
Civil Twilight 5:39 AM MDT 8:09 PM MDT
Nautical Twilight 5:05 AM MDT 8:43 PM MDT
Astronomical Twilight 4:29 AM MDT 9:19 PM MDT
Moon 5:08 AM MDT (8/16) 6:53 PM MDT (8/16)
Length of Visible Light 14h 30m
Length of Day
13h 34m
Waning Crescent, 1% of the Moon is Illuminated
Aug 16
Waning Crescent
Aug 17
New
Aug 24
First Quarter
Aug 31
Full
Sep 8
Last Quarter

Hourly Weather History & Observations

Time (MDT) Temp. Dew Point Humidity Pressure Visibility Wind Dir Wind Speed Gust Speed Precip Events Conditions
12:53 AM 70.0 °F 50.0 °F 49% 29.91 in 10.0 mi NE 17.3 mph 25.3 mph N/A   Clear
1:53 AM 68.0 °F 50.0 °F 52% 29.93 in 10.0 mi NNE 13.8 mph - N/A   Clear
2:53 AM 66.0 °F 48.0 °F 52% 29.96 in 10.0 mi NE 16.1 mph 24.2 mph N/A   Clear
3:53 AM 64.0 °F 48.0 °F 56% 29.99 in 10.0 mi NE 18.4 mph 24.2 mph N/A   Clear
4:53 AM 61.0 °F 48.9 °F 64% 30.03 in 10.0 mi NE 10.4 mph - N/A   Clear
5:53 AM 59.0 °F 48.9 °F 69% 30.05 in 10.0 mi NNE 5.8 mph - N/A   Clear
6:53 AM 60.1 °F 48.9 °F 67% 30.08 in 10.0 mi NNE 5.8 mph - N/A   Clear
7:53 AM 63.0 °F 48.0 °F 58% 30.10 in 10.0 mi NNE 8.1 mph - N/A   Clear
9:53 AM 66.0 °F 46.9 °F 50% 30.13 in 10.0 mi East 8.1 mph - N/A   Clear
10:53 AM 69.1 °F 46.0 °F 44% 30.12 in 10.0 mi NE 10.4 mph - N/A   Clear
11:53 AM 71.1 °F 46.0 °F 41% 30.12 in 10.0 mi East 10.4 mph - N/A   Clear
12:53 PM 73.9 °F 46.9 °F 38% 30.09 in 10.0 mi East 11.5 mph 17.3 mph N/A   Clear
1:53 PM 75.9 °F 46.9 °F 36% 30.06 in 10.0 mi ENE 13.8 mph 21.9 mph N/A   Clear
2:53 PM 77.0 °F 46.9 °F 34% 30.04 in 10.0 mi ESE 10.4 mph 17.3 mph N/A   Clear
3:53 PM 78.1 °F 46.9 °F 33% 30.01 in 10.0 mi ESE 12.7 mph 23.0 mph N/A   Clear
4:53 PM 78.1 °F 46.0 °F 32% 30.01 in 10.0 mi SE 10.4 mph 19.6 mph N/A   Clear
5:53 PM 77.0 °F 45.0 °F 32% 30.02 in 10.0 mi ESE 13.8 mph - N/A   Clear
6:53 PM 75.0 °F 45.0 °F 34% 30.04 in 10.0 mi East 11.5 mph - N/A   Clear
7:53 PM 71.1 °F 45.0 °F 39% 30.04 in 10.0 mi East 11.5 mph - N/A   Clear
8:53 PM 69.1 °F 45.0 °F 42% 30.06 in 10.0 mi East 10.4 mph - N/A   Clear
9:53 PM 66.9 °F 45.0 °F 45% 30.05 in 10.0 mi ESE 11.5 mph - N/A   Clear
10:53 PM 64.9 °F 45.0 °F 48% 30.06 in 10.0 mi ESE 12.7 mph - N/A   Clear
11:53 PM 63.0 °F 45.0 °F 52% 30.06 in 10.0 mi ESE 9.2 mph - N/A   Clear